sat.trackr.live / text

‹ back to catalog

STARLINK-34050

NORAD 64331 · 2025-124Q

PAYLOAD ACTIVE UNKNOWN

§ Identity

Operator
Country
US
Launch date
2025-06-10
Launch site
AFETR
Launch vehicle
Mass (kg)
RCS (m²)

Purposes: comms

External: N2YO · Heavens-Above · Gunter

§ Orbital elements

Epoch: 2026-09-19T23:26:35.814624Z

Period
94.27 min
Inclination
43.0005°
Eccentricity
0.0002776
Mean motion
15.27605193 rev/d
Perigee alt
481.1 km
Apogee alt
484.9 km
Semi-major
6,861.1 km
B*
3.4245e-4
RAAN
104.5150°
Arg perigee
256.8568°
Mean anomaly
103.1974°
Rev number
7,255

§ Raw data

STARLINK-340501 64331U 25124Q   26262.97680341  .00009180  00000+0  34245-3 0  99952 64331  43.0005 104.5150 0002776 256.8568 103.1974 15.27605193 72552

JSON: /api/v1/satellites/64331 · /tle

For live sub-satellite position, see the globe view (requires WebGL).

§ Visibility from observer

Set your observer location to see the next 7 days of passes ≥ 10°. The values pass through the URL so the page stays shareable.

No JS? Fill the form by hand. The geolocation button needs JavaScript.